Stations météo

Publicité
Laupheim, Allemagne (10837): Température de l'air & dewpoint: 10.01.2018 08:00:00 - 16.01.2018 08:00:00 (CET)Laupheim, Allemagne (10837): Température de l'air -5cm: 10.01.2018 08:00:00 - 16.01.2018 08:00:00 (CET)Laupheim, Allemagne (10837): Température de l'air -20cm & Température de l'air -100cm: 10.01.2018 08:00:00 - 16.01.2018 08:00:00 (CET)Laupheim, Allemagne (10837): Vitesse du vent & gusts: 10.01.2018 08:00:00 - 16.01.2018 08:00:00 (CET)Laupheim, Allemagne (10837): Direction du vent: 10.01.2018 08:00:00 - 16.01.2018 08:00:00 (CET)Laupheim, Allemagne (10837): reduced air pressure: 10.01.2018 08:00:00 - 16.01.2018 08:00:00 (CET)Laupheim, Allemagne (10837): visibility: 10.01.2018 08:00:00 - 16.01.2018 08:00:00 (CET)
Date & Time tt [°C] td [°C] tt -5cm [°C] tt -20cm [°C] tt -100cm [°C] ff [km/h] ff [knt] fx [km/h] fx [knt] dd ppp [hPa] vv [km]
16.01.2018 08:00:00 5,3 3,0 3,1 2,5 5,7 36 19 61 33 WSW 1000,4 15
16.01.2018 07:00:00 5,3 2,5 - - - 36 19 - - SW 1000,9 15
16.01.2018 06:00:00 5,2 2,5 - - - 29 16 54 29 SW 1002,0 15
16.01.2018 05:00:00 5,3 2,1 - - - 36 19 61 33 SW 1002,6 15
16.01.2018 04:00:00 4,7 2,3 - - - 40 21 - - SW 1003,1 12
16.01.2018 03:00:00 4,3 2,0 - - - 32 18 54 29 SW 1003,8 8
16.01.2018 02:00:00 3,7 1,8 - - - 29 16 47 25 SW 1004,5 8
16.01.2018 01:00:00 3,1 1,4 - - - 29 16 - - SW 1005,7 8
16.01.2018 00:00:00 3,2 1,3 - - - 32 18 54 29 SW 1006,8 8
15.01.2018 23:00:00 3,2 1,3 - - - 32 18 54 29 SW 1007,4 8
15.01.2018 22:00:00 3,4 1,2 - - - 25 14 - - SSW 1008,3 7
15.01.2018 21:00:00 4,3 -0,2 - - - 25 14 - - SW 1009,2 8
15.01.2018 20:00:00 3,5 -0,8 - - - 11 6 - - SSW 1009,9 10
15.01.2018 19:00:00 2,5 -1,6 - - - 11 6 - - WSW 1010,8 10
15.01.2018 18:00:00 2,9 -2,4 - - - 14 8 - - WSW 1011,8 10
15.01.2018 17:00:00 2,9 -2,9 - - - 11 6 - - SSW 1013,1 10
15.01.2018 16:00:00 2,5 -2,7 - - - 11 6 - - SSW 1014,8 12
15.01.2018 15:00:00 2,5 -2,3 1,2 1,5 - 7 4 - - SW 1016,3 12
15.01.2018 14:00:00 1,9 -2,9 - - - 14 8 - - SW 1017,5 12
15.01.2018 13:00:00 1,9 -2,7 - - - 18 10 - - WSW 1018,8 10
15.01.2018 12:00:00 0,8 -3,0 - - - 18 10 - - SW 1020,1 9
15.01.2018 11:00:00 -0,5 -2,7 - - - 18 10 - - SW 1022,0 8
15.01.2018 10:00:00 -1,2 -2,9 - - - 14 8 - - SW 1022,5 8
15.01.2018 09:00:00 -1,5 -2,9 - - - 15 8 - - SW 1022,9 8
15.01.2018 08:00:00 -1,3 -2,7 -0,1 1,6 5,8 14 8 - - SW 1022,7 8
15.01.2018 07:00:00 -1,2 -2,6 - - - 14 8 - - SW 1022,9 8
15.01.2018 06:00:00 -1,2 -2,6 - - - 14 8 - - SW 1023,1 8
15.01.2018 05:00:00 -1,2 -2,6 - - - 11 6 - - SW 1023,4 9
15.01.2018 04:00:00 -1,2 -2,8 - - - 11 6 - - SSW 1023,7 10
15.01.2018 03:00:00 -1,1 -3,0 - - - 11 6 - - SSW 1024,1 10
15.01.2018 02:00:00 -1,0 -3,2 - - - 11 6 - - SSW 1024,3 10
15.01.2018 01:00:00 -0,8 -3,2 - - - 11 6 - - SW 1024,6 12
15.01.2018 00:00:00 -1,0 -3,0 - - - 7 4 - - SSW 1024,9 12
14.01.2018 23:00:00 -1,9 -3,0 - - - 7 4 - - SSW 1025,0 12
14.01.2018 22:00:00 -2,6 -3,3 - - - 4 2 - - S 1025,2 12
14.01.2018 21:00:00 -2,3 -3,3 - - - 4 2 - - S 1024,9 12
14.01.2018 20:00:00 -2,0 -3,2 - - - 4 2 - - ESE 1024,6 12
14.01.2018 19:00:00 -1,3 -3,2 - - - 4 2 - - E 1024,0 12
14.01.2018 18:00:00 0,4 -2,8 - - - 0 0 - - N 1023,3 15
14.01.2018 17:00:00 0,4 -1,9 - - - 7 4 - - ENE 1023,1 20
14.01.2018 16:00:00 0,6 -3,4 - - - 7 4 - - E 1022,8 20
14.01.2018 15:00:00 0,4 -3,2 1,6 2,1 - 4 2 - - N 1022,5 18
14.01.2018 14:00:00 0,3 -3,1 - - - 8 4 - - E 1022,5 10
14.01.2018 13:00:00 -0,1 -3,0 - - - 4 2 - - N 1022,8 10
14.01.2018 12:00:00 -0,5 -2,6 - - - 11 6 - - NE 1023,5 9
14.01.2018 11:00:00 -0,4 -2,5 - - - 11 6 - - NE 1023,8 8
14.01.2018 10:00:00 -0,6 -2,5 - - - 11 6 - - NE 1023,5 8
14.01.2018 09:00:00 -0,5 -2,5 - - - 7 4 - - ENE 1023,1 8
14.01.2018 08:00:00 -0,3 -2,7 0,4 2,4 5,9 11 6 - - NNE 1022,7 8
14.01.2018 07:00:00 -0,2 -2,4 - - - 11 6 - - NE 1022,4 8
14.01.2018 06:00:00 -0,1 -2,4 - - - 11 6 - - NE 1022,1 8
14.01.2018 05:00:00 -0,2 -2,0 - - - 14 8 - - ENE 1022,1 7
14.01.2018 04:00:00 -0,1 -1,9 - - - 14 8 - - ENE 1022,3 7
14.01.2018 03:00:00 0,1 -1,5 - - - 11 6 - - ENE 1022,4 7
14.01.2018 02:00:00 0,3 -1,3 - - - 14 8 - - ENE 1022,3 7
14.01.2018 01:00:00 0,4 -1,0 - - - 14 8 - - ENE 1022,5 7
14.01.2018 00:00:00 0,7 -0,6 - - - 14 8 - - ENE 1022,7 7
13.01.2018 23:00:00 1,1 -0,6 - - - 11 6 - - ENE 1023,1 8
13.01.2018 22:00:00 1,3 -0,5 - - - 11 6 - - ENE 1023,1 9
13.01.2018 21:00:00 1,6 -0,6 - - - 14 8 - - E 1023,1 9
13.01.2018 20:00:00 1,9 -0,4 - - - 14 8 - - E 1023,3 9
13.01.2018 19:00:00 2,2 0,0 - - - 14 8 - - E 1023,2 9
13.01.2018 18:00:00 2,3 0,0 - - - 7 4 - - E 1023,4 12
13.01.2018 17:00:00 2,4 -0,3 - - - 7 4 - - E 1023,5 12
13.01.2018 16:00:00 2,4 -0,5 - - - 11 6 - - E 1023,7 9
13.01.2018 15:00:00 2,4 -0,6 2,4 2,9 - 18 10 - - E 1023,6 9
13.01.2018 14:00:00 2,4 -0,5 - - - 11 6 - - E 1023,9 9
13.01.2018 13:00:00 2,5 -0,4 - - - 11 6 - - E 1024,2 9
13.01.2018 12:00:00 2,5 -0,2 - - - 11 6 - - ESE 1024,7 9
13.01.2018 11:00:00 2,4 -0,2 - - - 11 6 - - E 1025,3 9
13.01.2018 10:00:00 2,2 -0,3 - - - 11 6 - - ENE 1025,3 9
13.01.2018 09:00:00 2,0 -0,2 - - - 14 8 - - ENE 1025,5 9
13.01.2018 08:00:00 1,6 -0,3 1,5 2,9 6,0 11 6 - - ENE 1025,6 9
13.01.2018 07:00:00 1,7 -0,3 - - - 7 4 - - NE 1025,8 12
13.01.2018 06:00:00 2,0 -0,8 - - - 14 8 - - E 1025,8 12
13.01.2018 05:00:00 1,9 -0,5 - - - 11 6 - - ENE 1026,2 12
13.01.2018 04:00:00 1,9 -0,7 - - - 14 8 - - ENE 1026,3 10
13.01.2018 03:00:00 2,0 -0,5 - - - 18 10 - - ENE 1026,5 12
13.01.2018 02:00:00 2,1 -0,3 - - - 14 8 - - ENE 1026,4 12
13.01.2018 01:00:00 2,2 -0,1 - - - 18 10 - - ENE 1026,5 12
13.01.2018 00:00:00 2,4 -0,3 - - - 18 10 - - E 1026,8 12
12.01.2018 23:00:00 2,5 -0,2 - - - 14 8 - - ENE 1027,0 9
12.01.2018 22:00:00 2,5 -0,3 - - - 22 12 - - E 1026,9 8
12.01.2018 21:00:00 2,2 0,7 - - - 11 6 - - ENE 1026,9 8
12.01.2018 20:00:00 2,0 0,7 - - - 11 6 - - NE 1026,8 8
12.01.2018 19:00:00 2,2 0,5 - - - 7 4 - - NNE 1026,7 8
12.01.2018 18:00:00 2,3 0,4 - - - 7 4 - - NNE 1026,7 8
12.01.2018 17:00:00 2,2 0,3 - - - 11 6 - - ENE 1026,4 9
12.01.2018 16:00:00 2,3 0,2 - - - 11 6 - - NE 1026,3 11
12.01.2018 15:00:00 2,4 -0,2 3,1 3,2 - 11 6 - - E 1025,8 11
12.01.2018 14:00:00 2,0 0,4 - - - 11 6 - - NE 1025,8 8
12.01.2018 13:00:00 1,8 0,4 - - - 11 6 - - E 1025,9 7
12.01.2018 12:00:00 1,4 0,3 - - - 11 6 - - ESE 1026,1 7
12.01.2018 11:00:00 1,2 0,2 - - - 14 8 - - E 1026,3 7
12.01.2018 10:00:00 1,0 0,3 - - - 14 8 - - E 1026,0 6
12.01.2018 09:00:00 0,9 0,4 - - - 11 6 - - ENE 1025,5 4,0
12.01.2018 08:00:00 1,2 0,8 1,9 3,2 6,0 11 6 - - NE 1025,0 3,7
12.01.2018 07:00:00 1,2 0,7 - - - 11 6 - - E 1024,6 3,8
12.01.2018 06:00:00 1,1 0,7 - - - 11 6 - - ENE 1024,1 4,0
12.01.2018 05:00:00 1,2 0,8 - - - 4 2 - - NE 1023,7 3,4
12.01.2018 04:00:00 1,4 1,1 - - - 7 4 - - ENE 1023,4 3,0
12.01.2018 03:00:00 1,3 1,1 - - - 11 6 - - NE 1023,3 2,0
12.01.2018 02:00:00 1,3 1,2 - - - 11 6 - - ENE 1022,9 1,6
12.01.2018 01:00:00 1,3 1,2 - - - 7 4 - - ENE 1022,5 1,5
12.01.2018 00:00:00 1,4 1,3 - - - 7 4 - - E 1022,1 3,0
11.01.2018 23:00:00 1,7 1,6 - - - 4 2 - - NNE 1021,6 3,0
11.01.2018 22:00:00 2,0 1,9 - - - 7 4 - - ENE 1021,1 1,8
11.01.2018 21:00:00 2,0 1,9 - - - 4 2 - - E 1020,8 1,6
11.01.2018 20:00:00 1,9 1,7 - - - 4 2 - - NNE 1020,4 1,6
11.01.2018 19:00:00 1,8 1,7 - - - 7 4 - - E 1019,9 0,6
11.01.2018 18:00:00 1,9 1,8 - - - 7 4 - - ENE 1019,2 0,4
11.01.2018 17:00:00 1,9 1,7 - - - 8 4 - - NE 1018,7 0,4
11.01.2018 16:00:00 1,7 1,6 - - - 11 6 - - ENE 1018,1 0,6
11.01.2018 15:00:00 1,7 1,6 4,0 2,9 - 7 4 - - NE 1017,3 0,4
11.01.2018 14:00:00 0,9 0,8 - - - 4 2 - - E 1017,0 0,1
11.01.2018 13:00:00 0,6 0,5 - - - 4 2 - - SSE 1017,0 0,1
11.01.2018 12:00:00 0,1 -0,1 - - - 4 2 - - SW 1017,2 0,1
11.01.2018 11:00:00 -0,4 -0,6 - - - 4 2 - - N 1017,3 0,1
11.01.2018 10:00:00 -0,8 -1,0 - - - 4 2 - - NNW 1017,0 0,1
11.01.2018 09:00:00 -0,4 -0,7 - - - 4 2 - - NE 1016,6 0,4
11.01.2018 08:00:00 -0,7 -0,9 0,5 3,1 6,1 7 4 - - ENE 1016,3 3,2
11.01.2018 07:00:00 -1,1 -1,4 - - - 4 2 - - NW 1015,8 4,0
11.01.2018 06:00:00 -0,5 -1,0 - - - 4 2 - - N 1015,1 4,0
11.01.2018 05:00:00 0,2 -0,2 - - - 4 2 - - S 1014,6 5
11.01.2018 04:00:00 1,7 1,0 - - - 11 6 - - WSW 1014,1 5
11.01.2018 03:00:00 2,2 1,4 - - - 7 4 - - SSW 1014,0 6
11.01.2018 02:00:00 2,5 1,8 - - - 7 4 - - SSW 1014,0 5
11.01.2018 01:00:00 2,9 2,3 - - - 7 4 - - SW 1014,1 5
11.01.2018 00:00:00 2,5 2,2 - - - 7 4 - - SW 1014,2 6
10.01.2018 23:00:00 2,9 2,2 - - - 4 2 - - N 1013,9 7
10.01.2018 22:00:00 3,7 3,0 - - - 4 2 - - N 1013,7 7
10.01.2018 21:00:00 3,2 2,6 - - - 4 2 - - SW 1014,0 8
10.01.2018 20:00:00 4,3 3,3 - - - 7 4 - - SW 1013,7 15
10.01.2018 19:00:00 4,3 3,1 - - - 4 2 - - E 1013,5 20
10.01.2018 18:00:00 4,5 3,2 - - - 4 2 - - E 1013,0 20
10.01.2018 17:00:00 5,6 3,4 - - - 4 2 - - N 1012,7 20
10.01.2018 16:00:00 6,9 3,3 - - - 4 2 - - NE 1011,9 20
10.01.2018 15:00:00 7,8 2,8 8,6 4,4 - 4 2 - - W 1011,6 15
10.01.2018 14:00:00 7,8 2,9 - - - 7 4 - - N 1011,8 15
10.01.2018 13:00:00 6,9 2,4 - - - 4 2 - - ESE 1012,7 12
10.01.2018 12:00:00 5,2 2,2 - - - 4 2 - - N 1014,1 12
10.01.2018 11:00:00 4,2 1,9 - - - 4 2 - - NW 1015,1 9
10.01.2018 10:00:00 2,1 1,2 - - - 7 4 - - E 1015,6 7
10.01.2018 09:00:00 1,1 0,7 - - - 4 2 - - N 1016,3 5
10.01.2018 08:00:00 0,9 0,6 0,7 3,1 6,1 7 4 - - SW 1016,3 5

tt = Température de l'air
td = dewpoint
tt -5cm = Température de l'air -5cm
tt -20cm = Température de l'air -20cm
tt -100cm = Température de l'air -100cm
ff = Vitesse du vent
fx = gusts
dd = Direction du vent
ppp = reduced air pressure
vv = visibility

stations d'obs. à proximité